KI4NG Weather Reports


time (UTC)temp
C
wind
direction
speed
KPH
gust
KPH
rain 1hr
cm
rain 24hr
cm
rain mn
cm
humidity
%
barometer
mb
20260503214937 17 155 3.2 3.2 0.00 0.00 0.00 47 1017.3
20260503214435 17 168 4.8 4.8 0.00 0.00 0.00 44 1017.5
20260503213932 17 183 3.2 3.2 0.00 0.00 0.00 43 1017.5
20260503213431 17 137 3.2 4.8 0.00 0.00 0.00 43 1017.5
20260503212926 17 7 6.4 8.0 0.00 0.00 0.00 43 1017.6
20260503212424 17 237 4.8 4.8 0.00 0.00 0.00 44 1017.7
20260503211921 17 141 1.6 3.2 0.00 0.00 0.00 43 1017.6
20260503211418 17 209 4.8 4.8 0.00 0.00 0.00 44 1017.9
20260503210913 18 237 6.4 11.3 0.00 0.00 0.00 43 1017.8
20260503210410 17 151 1.6 3.2 0.00 0.00 0.00 47 1017.9
20260503205905 17 154 3.2 3.2 0.00 0.00 0.00 46 1017.8
20260503205403 17 249 4.8 8.0 0.00 0.00 0.00 49 1018.0
20260503204858 17 126 1.6 1.6 0.00 0.00 0.00 46 1018.1
20260503204356 17 225 1.6 1.6 0.00 0.00 0.00 44 1018.1
20260503203853 16 184 11.3 12.9 0.00 0.00 0.00 43 1018.0
20260503203350 17 172 6.4 9.7 0.00 0.00 0.00 44 1018.2
20260503202847 17 120 1.6 3.2 0.00 0.00 0.00 45 1018.2
20260503202345 16 214 4.8 8.0 0.00 0.00 0.00 45 1018.3
20260503201844 16 272 4.8 4.8 0.00 0.00 0.00 44 1018.3
20260503201340 16 274 9.7 12.9 0.00 0.00 0.00 43 1018.5
20260503200838 16 209 6.4 8.0 0.00 0.00 0.00 44 1018.7
20260503200333 16 132 1.6 1.6 0.00 0.00 0.00 46 1018.9
20260503195831 16 167 3.2 4.8 0.00 0.00 0.00 44 1018.8
20260503195327 16 202 8.0 14.5 0.00 0.00 0.00 44 1019.0
20260503194825 16 137 3.2 3.2 0.00 0.00 0.00 47 1019.0
20260503194320 16 187 9.7 11.3 0.00 0.00 0.00 44 1018.9
20260503193817 16 208 6.4 9.7 0.00 0.00 0.00 44 1019.2
20260503193313 16 150 1.6 3.2 0.00 0.00 0.00 50 1019.2
20260503192809 15 89 1.6 1.6 0.00 0.00 0.00 48 1019.4
20260503192305 16 204 9.7 11.3 0.00 0.00 0.00 45 1019.6
20260503191801 16 186 4.8 8.0 0.00 0.00 0.00 48 1019.6
20260503191258 16 86 3.2 3.2 0.00 0.00 0.00 46 1019.4
20260503190755 15 122 1.6 1.6 0.00 0.00 0.00 47 1019.6
20260503190251 16 172 3.2 4.8 0.00 0.00 0.00 49 1019.7
20260503185749 15 128 1.6 1.6 0.00 0.00 0.00 47 1019.8
20260503185244 15 193 4.8 4.8 0.00 0.00 0.00 51 1019.8
20260503184739 16 315 3.2 3.2 0.00 0.00 0.00 47 1020.0
20260503184236 15 143 3.2 4.8 0.00 0.00 0.00 51 1019.8
20260503183732 15 187 4.8 8.0 0.00 0.00 0.00 46 1020.0
20260503183229 15 144 3.2 3.2 0.00 0.00 0.00 51 1020.1
20260503182727 15 168 4.8 8.0 0.00 0.00 0.00 45 1020.2
20260503182226 15 75 4.8 4.8 0.00 0.00 0.00 48 1020.4
20260503181722 15 76 3.2 4.8 0.00 0.00 0.00 47 1020.6
20260503181219 15 91 1.6 3.2 0.00 0.00 0.00 49 1020.2
20260503180715 15 203 3.2 3.2 0.00 0.00 0.00 48 1020.6
20260503180214 14 184 8.0 9.7 0.00 0.00 0.00 49 1020.6
20260503175710 15 70 3.2 3.2 0.00 0.00 0.00 49 1020.2
20260503175208 13 111 6.4 8.0 0.00 0.00 0.00 50 1020.7
20260503174704 13 156 6.4 9.7 0.00 0.00 0.00 50 1020.7
20260503174202 13 75 4.8 4.8 0.00 0.00 0.00 49 1020.8
20260503173657 14 260 17.7 17.7 0.00 0.00 0.00 47 1020.6
20260503173153 13 127 3.2 3.2 0.00 0.00 0.00 49 1020.9
20260503172650 13 210 3.2 3.2 0.00 0.00 0.00 51 1020.8
20260503172147 13 193 4.8 4.8 0.00 0.00 0.00 49 1020.9
20260503171644 13 213 8.0 9.7 0.00 0.00 0.00 49 1021.1
20260503171141 13 184 4.8 4.8 0.00 0.00 0.00 53 1021.1
20260503170638 13 136 3.2 4.8 0.00 0.00 0.00 47 1021.2
20260503170135 12 203 6.4 9.7 0.00 0.00 0.00 58 1021.3
20260503150526 11 172 4.8 4.8 0.00 0.00 0.00 56 1022.1
20260503131420 7 147 3.2 3.2 0.00 0.00 0.00 81 1022.1
20260503130916 6 134 4.8 4.8 0.00 0.00 0.00 83 1022.0
20260503130414 6 131 6.4 8.0 0.00 0.00 0.00 83 1022.2
20260503110818 1 148 0.0 0.0 0.00 0.00 0.00 99 1020.9
20260503110315 1 148 0.0 0.0 0.00 0.00 0.00 99 1020.8
20260503100241 2 148 0.0 0.0 0.00 0.00 0.00 99 1020.3
20260503090200 2 135 0.0 0.0 0.00 0.00 0.00 99 1020.0
20260503081630 2 139 0.0 0.0 0.00 0.00 0.00 99 1020.0
20260503081127 2 140 0.0 0.0 0.00 0.00 0.00 99 1020.0
20260503080623 2 139 0.0 0.0 0.00 0.00 0.00 99 1019.8
20260503080120 2 139 0.0 0.0 0.00 0.00 0.00 99 1019.8
20260503072557 3 140 0.0 0.0 0.00 0.00 0.00 99 1019.5
20260503072054 3 140 0.0 0.0 0.00 0.00 0.00 99 1019.4
20260503071551 3 140 0.0 0.0 0.00 0.00 0.00 99 1019.3
20260503071048 3 140 0.0 0.0 0.00 0.00 0.00 99 1019.2
20260503070544 3 139 0.0 0.0 0.00 0.00 0.00 99 1019.3
20260503054957 3 140 0.0 0.0 0.00 0.00 0.00 98 1019.2
20260503054453 3 139 0.0 0.0 0.00 0.00 0.00 97 1019.3
20260503053951 4 139 0.0 0.0 0.00 0.00 0.00 97 1019.3
20260503053449 4 140 0.0 0.0 0.00 0.00 0.00 97 1019.3
20260503052945 4 139 0.0 0.0 0.00 0.00 0.00 96 1019.1
20260503052443 4 139 0.0 0.0 0.00 0.00 0.00 96 1019.3
20260503051939 5 138 0.0 0.0 0.00 0.00 0.00 96 1019.3
20260503051435 5 137 0.0 0.0 0.00 0.00 0.00 96 1019.2
20260503050932 5 141 0.0 0.0 0.00 0.00 0.00 96 1019.3
20260503050428 5 146 0.0 0.0 0.00 0.00 0.00 96 1019.2
20260503045926 4 138 0.0 0.0 0.00 0.00 0.00 96 1019.2
20260503045423 5 138 0.0 0.0 0.00 0.00 0.00 96 1019.1
20260503044920 5 138 0.0 0.0 0.00 0.00 0.00 95 1019.0
20260503044417 5 138 0.0 0.0 0.00 0.00 0.00 94 1019.1
20260503043914 5 139 0.0 0.0 0.00 0.00 0.00 94 1019.1
20260503043411 5 139 0.0 0.0 0.00 0.00 0.00 94 1019.1
20260503042907 5 144 0.0 0.0 0.00 0.00 0.00 93 1019.1
20260503042404 5 142 0.0 0.0 0.00 0.00 0.00 92 1019.1
20260503041900 6 142 0.0 0.0 0.00 0.00 0.00 91 1019.2
20260503041357 6 142 0.0 0.0 0.00 0.00 0.00 90 1018.8
20260503040855 6 136 0.0 0.0 0.00 0.00 0.00 90 1018.7
20260503040352 6 137 0.0 0.0 0.00 0.00 0.00 90 1018.7
20260503035849 6 130 0.0 0.0 0.00 0.00 0.00 90 1018.9
20260503035346 7 143 0.0 1.6 0.00 0.00 0.00 89 1018.8
20260503034843 7 131 0.0 0.0 0.00 0.00 0.00 88 1018.9
20260503034340 7 136 0.0 0.0 0.00 0.00 0.00 88 1018.8
20260503033838 7 142 0.0 0.0 0.00 0.00 0.00 87 1018.6
20260503033335 7 143 1.6 1.6 0.00 0.00 0.00 86 1018.6
20260503032833 7 153 0.0 0.0 0.00 0.00 0.00 86 1018.6
20260503032331 7 139 0.0 0.0 0.00 0.00 0.00 85 1018.5
20260503031829 7 132 0.0 0.0 0.00 0.00 0.00 85 1018.5
20260503031326 7 135 0.0 0.0 0.00 0.00 0.00 86 1018.5
20260503030822 7 138 0.0 0.0 0.00 0.00 0.00 87 1018.8
20260503030319 7 135 0.0 0.0 0.00 0.00 0.00 85 1018.5
20260503025816 7 135 0.0 0.0 0.00 0.00 0.00 86 1018.7
20260503025313 7 147 0.0 0.0 0.00 0.00 0.00 87 1018.5
20260503024810 7 148 0.0 0.0 0.00 0.00 0.00 87 1018.6
20260503024307 7 148 0.0 0.0 0.00 0.00 0.00 87 1018.5
20260503023804 7 148 0.0 0.0 0.00 0.00 0.00 85 1018.7
20260503023301 7 148 0.0 0.0 0.00 0.00 0.00 85 1018.6
20260503022757 7 148 0.0 0.0 0.00 0.00 0.00 84 1018.6
20260503022257 7 148 0.0 0.0 0.00 0.00 0.00 83 1018.6
20260503021754 7 147 0.0 0.0 0.00 0.00 0.00 83 1018.6
20260503021250 7 148 0.0 0.0 0.00 0.00 0.00 82 1018.7
20260503020748 7 146 0.0 0.0 0.00 0.00 0.00 83 1018.3
20260503020246 7 150 0.0 0.0 0.00 0.00 0.00 82 1018.6
20260503015741 7 150 0.0 0.0 0.00 0.00 0.00 83 1018.2
20260503015238 7 153 0.0 0.0 0.00 0.00 0.00 83 1018.3
20260503014734 7 165 0.0 0.0 0.00 0.00 0.00 83 1018.2
20260503014233 7 159 0.0 0.0 0.00 0.00 0.00 84 1018.0
20260503013729 7 142 0.0 0.0 0.00 0.00 0.00 84 1017.9
20260503013227 7 151 1.6 1.6 0.00 0.00 0.00 83 1018.0
20260503012724 7 154 0.0 0.0 0.00 0.00 0.00 84 1018.0
20260503012221 7 140 0.0 0.0 0.00 0.00 0.00 83 1017.8
20260503011718 8 142 0.0 0.0 0.00 0.00 0.00 84 1017.7
20260503011215 8 137 0.0 0.0 0.00 0.00 0.00 83 1017.7
20260503010710 8 141 0.0 0.0 0.00 0.00 0.00 83 1017.7
20260503010208 7 150 0.0 0.0 0.00 0.00 0.00 82 1017.7
20260503005706 8 146 0.0 0.0 0.00 0.00 0.00 82 1017.6
20260503005202 8 145 1.6 1.6 0.00 0.00 0.00 82 1017.5
20260503004658 8 141 0.0 0.0 0.00 0.00 0.00 82 1017.2
20260503004157 8 135 0.0 0.0 0.00 0.00 0.00 82 1017.5
20260503003654 8 132 0.0 0.0 0.00 0.00 0.00 81 1017.3
20260503003151 8 135 0.0 0.0 0.00 0.00 0.00 80 1017.0
20260503002648 8 129 0.0 1.6 0.00 0.00 0.00 79 1017.2
20260503002144 8 133 0.0 0.0 0.00 0.00 0.00 79 1017.1
20260503001640 8 139 0.0 0.0 0.00 0.00 0.00 78 1017.2
20260503001137 8 144 0.0 0.0 0.00 0.00 0.00 77 1017.0
20260503000635 9 147 0.0 0.0 0.00 0.00 0.00 76 1017.2
20260503000132 9 140 0.0 0.0 0.00 0.00 0.00 75 1017.0
20260502235628 9 188 1.6 1.6 0.00 0.00 0.00 75 1017.0
20260502235127 10 141 0.0 1.6 0.00 0.00 0.00 73 1016.9
20260502234622 10 148 0.0 1.6 0.00 0.00 0.00 71 1016.7
20260502234120 10 132 1.6 1.6 0.00 0.00 0.00 68 1016.7
20260502233616 10 140 0.0 1.6 0.00 0.00 0.00 71 1016.8
20260502233113 10 247 3.2 3.2 0.00 0.00 0.00 70 1016.8
20260502232608 10 260 3.2 4.8 0.00 0.00 0.00 69 1016.9
20260502232106 10 139 0.0 0.0 0.00 0.00 0.00 66 1016.9
20260502231603 10 230 3.2 3.2 0.00 0.00 0.00 64 1016.6
20260502231101 10 140 1.6 1.6 0.00 0.00 0.00 67 1016.7
20260502230559 11 232 1.6 3.2 0.00 0.00 0.00 66 1016.6
20260502230057 11 141 1.6 1.6 0.00 0.00 0.00 62 1016.6
20260502225552 11 283 3.2 3.2 0.00 0.00 0.00 62 1016.8
20260502225050 12 36 4.8 4.8 0.00 0.00 0.00 62 1016.7
20260502224545 12 249 3.2 4.8 0.00 0.00 0.00 61 1016.6
20260502224043 12 65 3.2 3.2 0.00 0.00 0.00 60 1016.5
20260502223540 12 113 1.6 1.6 0.00 0.00 0.00 60 1016.6
20260502223040 12 110 1.6 3.2 0.00 0.00 0.00 61 1016.5
20260502222536 12 227 1.6 3.2 0.00 0.00 0.00 60 1016.7
20260502222032 12 54 4.8 8.0 0.00 0.00 0.00 60 1016.4
20260502221527 12 342 3.2 4.8 0.00 0.00 0.00 61 1016.1
20260502221025 13 237 1.6 3.2 0.00 0.00 0.00 60 1016.7
20260502220520 12 39 4.8 8.0 0.00 0.00 0.00 61 1016.4
20260502220018 12 313 1.6 3.2 0.00 0.00 0.00 60 1016.5
20260502215515 12 76 3.2 3.2 0.00 0.00 0.00 62 1016.2